• In Portugal
  • List of Countries
  • For 7 days
  • Water Temperature
  • Satellite Maps
  • Weather Map
  • Weather Widgets
  • user-avatar
    Login

    Hourly Weather Slobodka

    Today, 21 August, Tuesday

    Time Temperature Precipitation Wind Pressure Humidity
    00:00 +19°C° 0 mm 2 mps 745 mmHg 73%
    01:00 +18°C° 0 mm 3 mps 745 mmHg 74%
    02:00 +18°C° 0 mm 3 mps 745 mmHg 74%
    03:00 +18°C° 0 mm 3 mps 745 mmHg 75%
    04:00 +18°C° 0 mm 3 mps 744 mmHg 75%
    05:00 +18°C° 0 mm 3 mps 744 mmHg 75%
    06:00 +19°C° 0 mm 4 mps 744 mmHg 70%
    07:00 +21°C° 0 mm 4 mps 744 mmHg 66%
    08:00 +23°C° 0 mm 5 mps 744 mmHg 61%
    09:00 +25°C° 0.1 mm 5 mps 743 mmHg 58%
    10:00 +27°C° 0.1 mm 6 mps 743 mmHg 55%
    11:00 +28°C° 0.1 mm 7 mps 743 mmHg 53%
    12:00 +28°C° 0.6 mm 7 mps 743 mmHg 54%
    13:00 +28°C° 0.6 mm 7 mps 742 mmHg 55%
    14:00 +28°C° 0.6 mm 7 mps 742 mmHg 57%
    15:00 +27°C° 1.4 mm 6 mps 742 mmHg 63%
    16:00 +26°C° 1.4 mm 6 mps 742 mmHg 69%
    17:00 +23°C° 1.4 mm 5 mps 742 mmHg 75%
    18:00 +22°C° 0.5 mm 4 mps 742 mmHg 80%
    19:00 +21°C° 0.5 mm 4 mps 742 mmHg 85%
    20:00 +19°C° 0.5 mm 3 mps 742 mmHg 90%
    21:00 +18°C° 0 mm 3 mps 742 mmHg 91%
    22:00 +18°C° 0 mm 3 mps 743 mmHg 92%
    23:00 +17°C° 0 mm 3 mps 743 mmHg 93%

    Tomorrow, 22 August, Wednesday

    Time Temperature Precipitation Wind Pressure Humidity
    00:00 +16°C° 0 mm 3 mps 743 mmHg 93%
    01:00 +14°C° 0 mm 3 mps 744 mmHg 93%
    02:00 +14°C° 0 mm 3 mps 744 mmHg 93%
    03:00 +13°C° 0 mm 3 mps 744 mmHg 93%
    04:00 +13°C° 0 mm 3 mps 745 mmHg 93%
    05:00 +12°C° 0 mm 3 mps 745 mmHg 93%
    06:00 +13°C° 0 mm 3 mps 745 mmHg 87%
    07:00 +16°C° 0 mm 3 mps 746 mmHg 80%
    08:00 +17°C° 0 mm 4 mps 746 mmHg 74%
    09:00 +18°C° 0 mm 4 mps 747 mmHg 66%
    10:00 +19°C° 0 mm 4 mps 747 mmHg 58%
    11:00 +20°C° 0 mm 5 mps 747 mmHg 51%
    12:00 +21°C° 0 mm 5 mps 747 mmHg 49%
    13:00 +21°C° 0 mm 5 mps 748 mmHg 47%
    14:00 +21°C° 0 mm 5 mps 748 mmHg 45%
    15:00 +21°C° 0 mm 4 mps 748 mmHg 47%
    16:00 +20°C° 0 mm 4 mps 748 mmHg 50%
    17:00 +20°C° 0 mm 3 mps 748 mmHg 53%
    18:00 +18°C° 0 mm 3 mps 749 mmHg 57%
    19:00 +16°C° 0 mm 3 mps 749 mmHg 61%
    20:00 +15°C° 0 mm 2 mps 749 mmHg 65%
    21:00 +14°C° 0 mm 2 mps 750 mmHg 67%
    22:00 +13°C° 0 mm 2 mps 750 mmHg 70%
    23:00 +13°C° 0 mm 2 mps 750 mmHg 72%

    Day after tomorrow, 23 August, Thursday

    Time Temperature Precipitation Wind Pressure Humidity
    00:00 +12°C° 0 mm 2 mps 751 mmHg 74%
    01:00 +12°C° 0 mm 2 mps 751 mmHg 76%
    02:00 +12°C° 0 mm 2 mps 751 mmHg 78%
    03:00 +10°C° 0 mm 2 mps 751 mmHg 78%
    04:00 +10°C° 0 mm 2 mps 751 mmHg 79%
    05:00 +10°C° 0 mm 2 mps 751 mmHg 79%
    06:00 +13°C° 0 mm 2 mps 752 mmHg 73%
    07:00 +14°C° 0 mm 2 mps 752 mmHg 66%
    08:00 +16°C° 0 mm 2 mps 752 mmHg 60%
    09:00 +17°C° 0 mm 2 mps 752 mmHg 55%
    10:00 +19°C° 0 mm 2 mps 752 mmHg 50%
    11:00 +21°C° 0 mm 1 mps 752 mmHg 45%
    12:00 +21°C° 0 mm 1 mps 752 mmHg 43%
    13:00 +22°C° 0 mm 1 mps 752 mmHg 42%
    14:00 +22°C° 0 mm 1 mps 751 mmHg 40%
    15:00 +22°C° 0 mm 1 mps 751 mmHg 42%
    16:00 +22°C° 0 mm 1 mps 751 mmHg 44%
    17:00 +22°C° 0 mm 1 mps 751 mmHg 47%
    18:00 +20°C° 0 mm 1 mps 751 mmHg 50%
    19:00 +18°C° 0 mm 1 mps 751 mmHg 54%
    20:00 +15°C° 0 mm 2 mps 751 mmHg 57%
    21:00 +15°C° 0 mm 2 mps 751 mmHg 59%
    22:00 +14°C° 0 mm 2 mps 751 mmHg 60%
    23:00 +14°C° 0 mm 2 mps 751 mmHg 62%

    24 August, Friday

    Time Temperature Precipitation Wind Pressure Humidity
    00:00 +13°C° 0 mm 2 mps 751 mmHg 63%
    01:00 +13°C° 0 mm 2 mps 751 mmHg 65%
    02:00 +13°C° 0 mm 2 mps 751 mmHg 66%
    03:00 +12°C° 0 mm 2 mps 751 mmHg 67%
    04:00 +12°C° 0 mm 2 mps 751 mmHg 69%
    05:00 +12°C° 0 mm 2 mps 751 mmHg 70%
    06:00 +14°C° 0 mm 2 mps 751 mmHg 66%
    07:00 +16°C° 0 mm 2 mps 751 mmHg 62%
    08:00 +18°C° 0 mm 3 mps 751 mmHg 58%
    09:00 +19°C° 0 mm 3 mps 750 mmHg 53%
    10:00 +21°C° 0 mm 3 mps 750 mmHg 48%
    11:00 +22°C° 0 mm 3 mps 750 mmHg 44%
    12:00 +24°C° 0 mm 3 mps 750 mmHg 42%
    13:00 +24°C° 0 mm 3 mps 749 mmHg 41%
    14:00 +25°C° 0 mm 3 mps 749 mmHg 40%
    15:00 +25°C° 0 mm 3 mps 749 mmHg 43%
    16:00 +24°C° 0 mm 2 mps 748 mmHg 46%
    17:00 +24°C° 0 mm 2 mps 748 mmHg 50%
    18:00 +21°C° 0 mm 2 mps 748 mmHg 53%
    19:00 +19°C° 0 mm 2 mps 748 mmHg 57%
    20:00 +17°C° 0 mm 2 mps 748 mmHg 60%
    21:00 +17°C° 0 mm 2 mps 748 mmHg 62%
    22:00 +16°C° 0 mm 3 mps 748 mmHg 63%
    23:00 +16°C° 0 mm 3 mps 747 mmHg 65%

    25 August, Saturday

    Time Temperature Precipitation Wind Pressure Humidity
    00:00 +14°C° 0 mm 3 mps 747 mmHg 65%
    01:00 +14°C° 0 mm 3 mps 747 mmHg 65%
    02:00 +14°C° 0 mm 3 mps 747 mmHg 66%
    03:00 +13°C° 0 mm 3 mps 747 mmHg 65%
    04:00 +13°C° 0 mm 3 mps 747 mmHg 65%
    05:00 +12°C° 0 mm 3 mps 747 mmHg 65%
    06:00 +14°C° 0 mm 3 mps 747 mmHg 62%
    07:00 +17°C° 0 mm 4 mps 747 mmHg 58%
    08:00 +19°C° 0 mm 4 mps 747 mmHg 54%
    09:00 +21°C° 0 mm 4 mps 747 mmHg 49%
    10:00 +22°C° 0 mm 4 mps 746 mmHg 44%
    11:00 +25°C° 0 mm 5 mps 746 mmHg 39%
    12:00 +26°C° 0 mm 5 mps 746 mmHg 38%
    13:00 +26°C° 0 mm 4 mps 746 mmHg 37%
    14:00 +26°C° 0 mm 4 mps 745 mmHg 36%
    15:00 +26°C° 0 mm 4 mps 745 mmHg 40%
    16:00 +25°C° 0 mm 3 mps 745 mmHg 44%
    17:00 +25°C° 0 mm 3 mps 744 mmHg 48%
    18:00 +22°C° 0 mm 3 mps 744 mmHg 51%
    19:00 +20°C° 0 mm 3 mps 744 mmHg 54%
    20:00 +18°C° 0 mm 3 mps 744 mmHg 57%
    21:00 +18°C° 0 mm 3 mps 744 mmHg 57%
    22:00 +17°C° 0 mm 3 mps 744 mmHg 57%
    23:00 +17°C° 0 mm 3 mps 744 mmHg 57%

    26 August, Sunday

    Time Temperature Precipitation Wind Pressure Humidity
    00:00 +16°C° 0 mm 3 mps 744 mmHg 56%
    01:00 +16°C° 0 mm 3 mps 744 mmHg 55%
    02:00 +14°C° 0 mm 3 mps 744 mmHg 55%
    03:00 +14°C° 0 mm 3 mps 744 mmHg 54%
    04:00 +14°C° 0 mm 3 mps 744 mmHg 54%
    05:00 +13°C° 0 mm 3 mps 743 mmHg 53%
    06:00 +16°C° 0 mm 3 mps 744 mmHg 51%
    07:00 +18°C° 0 mm 3 mps 744 mmHg 49%
    08:00 +20°C° 0 mm 4 mps 744 mmHg 47%
    09:00 +22°C° 0 mm 4 mps 744 mmHg 44%
    10:00 +25°C° 0 mm 4 mps 743 mmHg 40%
    11:00 +27°C° 0 mm 5 mps 743 mmHg 36%
    12:00 +27°C° 0 mm 4 mps 743 mmHg 36%
    13:00 +28°C° 0 mm 4 mps 743 mmHg 35%
    14:00 +28°C° 0 mm 4 mps 743 mmHg 34%
    15:00 +28°C° 0 mm 4 mps 743 mmHg 38%
    16:00 +27°C° 0 mm 3 mps 743 mmHg 42%
    17:00 +26°C° 0 mm 3 mps 743 mmHg 46%
    18:00 +25°C° 0 mm 3 mps 743 mmHg 46%
    19:00 +22°C° 0 mm 3 mps 743 mmHg 47%
    20:00 +21°C° 0 mm 3 mps 743 mmHg 47%
    21:00 +20°C° 0 mm 3 mps 743 mmHg 47%
    22:00 +20°C° 0 mm 3 mps 743 mmHg 47%
    23:00 +19°C° 0 mm 3 mps 743 mmHg 46%
    Show more